When you browse on this site, cookies collect data to enhance your experience and personalize the content and advertising you see.
Visit our Privacy Policy to learn more. By continuing to use the site, you agree to this use of cookies and data.
  • In Austria
  • List of Countries
  • For 7 days
  • Water Temperature
  • Weather Map
  • News
  • Weather Widgets
  • user-avatar
    Login

    Hourly Weather Newcastle

    Today, 12 December, Thursday

    Time Temperature Precipitation Wind Pressure Humidity
    00:00 -7°C° 0 mm 1 mps 760 mmHg 64%
    01:00 -8°C° 0 mm 2 mps 759 mmHg 63%
    02:00 -9°C° 0 mm 3 mps 759 mmHg 62%
    03:00 -8°C° 0 mm 3 mps 758 mmHg 66%
    04:00 -9°C° 0 mm 4 mps 758 mmHg 71%
    05:00 -8°C° 0 mm 5 mps 758 mmHg 75%
    06:00 -10°C° 0 mm 5 mps 759 mmHg 68%
    07:00 -11°C° 0 mm 6 mps 760 mmHg 61%
    08:00 -13°C° 0 mm 7 mps 761 mmHg 54%
    09:00 -14°C° 0 mm 7 mps 762 mmHg 50%
    10:00 -14°C° 0 mm 7 mps 764 mmHg 47%
    11:00 -14°C° 0 mm 7 mps 765 mmHg 44%
    12:00 -14°C° 0 mm 7 mps 766 mmHg 44%
    13:00 -14°C° 0 mm 7 mps 766 mmHg 45%
    14:00 -14°C° 0 mm 6 mps 767 mmHg 45%
    15:00 -15°C° 0 mm 6 mps 768 mmHg 48%
    16:00 -14°C° 0 mm 5 mps 768 mmHg 50%
    17:00 -14°C° 0 mm 4 mps 769 mmHg 53%
    18:00 -14°C° 0 mm 4 mps 770 mmHg 54%
    19:00 -14°C° 0 mm 3 mps 770 mmHg 55%
    20:00 -14°C° 0 mm 3 mps 771 mmHg 56%
    21:00 -14°C° 0 mm 3 mps 771 mmHg 57%
    22:00 -13°C° 0 mm 2 mps 771 mmHg 59%
    23:00 -13°C° 0 mm 2 mps 771 mmHg 60%

    Tomorrow, 13 December, Friday

    Time Temperature Precipitation Wind Pressure Humidity
    00:00 -13°C° 0 mm 2 mps 771 mmHg 62%
    01:00 -13°C° 0 mm 2 mps 772 mmHg 63%
    02:00 -11°C° 0 mm 1 mps 772 mmHg 65%
    03:00 -10°C° 0 mm 1 mps 771 mmHg 65%
    04:00 -10°C° 0 mm 1 mps 771 mmHg 65%
    05:00 -10°C° 0 mm 1 mps 771 mmHg 66%
    06:00 -9°C° 0 mm 1 mps 771 mmHg 66%
    07:00 -10°C° 0 mm 2 mps 771 mmHg 65%
    08:00 -10°C° 0 mm 2 mps 771 mmHg 65%
    09:00 -9°C° 0 mm 2 mps 770 mmHg 60%
    10:00 -9°C° 0 mm 3 mps 770 mmHg 56%
    11:00 -8°C° 0 mm 3 mps 769 mmHg 51%
    12:00 -7°C° 0.1 mm 3 mps 768 mmHg 62%
    13:00 -6°C° 0.1 mm 3 mps 767 mmHg 73%
    14:00 -5°C° 0.1 mm 3 mps 767 mmHg 85%
    15:00 -4°C° 0.1 mm 3 mps 766 mmHg 87%
    16:00 -3°C° 0.1 mm 2 mps 766 mmHg 88%
    17:00 -3°C° 0.1 mm 2 mps 765 mmHg 90%
    18:00 -3°C° 0 mm 2 mps 765 mmHg 90%
    19:00 -2°C° 0 mm 2 mps 765 mmHg 89%
    20:00 -2°C° 0 mm 2 mps 765 mmHg 89%
    21:00 -2°C° 0.1 mm 3 mps 765 mmHg 91%
    22:00 -2°C° 0.1 mm 3 mps 764 mmHg 94%
    23:00 -1°C° 0.1 mm 3 mps 764 mmHg 97%

    Day after tomorrow, 14 December, Saturday

    Time Temperature Precipitation Wind Pressure Humidity
    00:00 -1°C° 0 mm 3 mps 764 mmHg 97%
    01:00 -1°C° 0 mm 3 mps 763 mmHg 96%
    02:00 0°C° 0 mm 3 mps 763 mmHg 96%
    03:00 0°C° 0 mm 3 mps 763 mmHg 96%
    04:00 +1°C° 0 mm 2 mps 762 mmHg 96%
    05:00 +1°C° 0 mm 2 mps 762 mmHg 97%
    06:00 +1°C° 0.1 mm 2 mps 762 mmHg 96%
    07:00 +1°C° 0.1 mm 2 mps 761 mmHg 96%
    08:00 +1°C° 0.1 mm 2 mps 761 mmHg 96%
    09:00 +2°C° 0 mm 2 mps 760 mmHg 95%
    10:00 +2°C° 0 mm 2 mps 760 mmHg 93%
    11:00 +3°C° 0 mm 2 mps 759 mmHg 92%
    12:00 +2°C° 0 mm 3 mps 758 mmHg 94%
    13:00 +2°C° 0 mm 3 mps 756 mmHg 95%
    14:00 +2°C° 0 mm 3 mps 755 mmHg 97%
    15:00 +1°C° 2.9 mm 4 mps 753 mmHg 97%
    16:00 +2°C° 2.9 mm 5 mps 751 mmHg 96%
    17:00 +2°C° 2.9 mm 6 mps 749 mmHg 96%
    18:00 +2°C° 4.1 mm 6 mps 746 mmHg 96%
    19:00 +2°C° 4.1 mm 6 mps 744 mmHg 96%
    20:00 +3°C° 4.1 mm 5 mps 741 mmHg 96%
    21:00 +3°C° 1.3 mm 4 mps 739 mmHg 97%
    22:00 +3°C° 1.3 mm 3 mps 737 mmHg 98%
    23:00 +5°C° 1.3 mm 1 mps 736 mmHg 99%

    15 December, Sunday

    Time Temperature Precipitation Wind Pressure Humidity
    00:00 +5°C° 0.1 mm 2 mps 735 mmHg 98%
    01:00 +5°C° 0.1 mm 2 mps 734 mmHg 98%
    02:00 +6°C° 0.1 mm 2 mps 733 mmHg 98%
    03:00 +7°C° 0 mm 3 mps 733 mmHg 96%
    04:00 +8°C° 0 mm 3 mps 732 mmHg 94%
    05:00 +8°C° 0 mm 4 mps 732 mmHg 93%
    06:00 +8°C° 0 mm 4 mps 732 mmHg 92%
    07:00 +8°C° 0 mm 4 mps 731 mmHg 91%
    08:00 +7°C° 0 mm 4 mps 731 mmHg 90%
    09:00 +7°C° 0 mm 5 mps 731 mmHg 89%
    10:00 +7°C° 0 mm 5 mps 731 mmHg 88%
    11:00 +7°C° 0 mm 6 mps 731 mmHg 87%
    12:00 +7°C° 0 mm 6 mps 731 mmHg 82%
    13:00 +7°C° 0 mm 6 mps 730 mmHg 78%
    14:00 +7°C° 0 mm 6 mps 730 mmHg 74%
    15:00 +4°C° 0 mm 6 mps 730 mmHg 75%
    16:00 +2°C° 0 mm 5 mps 731 mmHg 76%
    17:00 0°C° 0 mm 5 mps 731 mmHg 77%
    18:00 0°C° 0 mm 5 mps 731 mmHg 76%
    19:00 0°C° 0 mm 5 mps 732 mmHg 75%
    20:00 -1°C° 0 mm 5 mps 733 mmHg 73%
    21:00 -1°C° 0 mm 5 mps 733 mmHg 73%
    22:00 -3°C° 0 mm 6 mps 734 mmHg 72%
    23:00 -3°C° 0 mm 6 mps 734 mmHg 71%

    16 December, Monday

    Time Temperature Precipitation Wind Pressure Humidity
    00:00 -4°C° 0 mm 6 mps 735 mmHg 69%
    01:00 -6°C° 0 mm 7 mps 736 mmHg 68%
    02:00 -6°C° 0 mm 7 mps 737 mmHg 66%
    03:00 -7°C° 0 mm 7 mps 738 mmHg 64%
    04:00 -8°C° 0 mm 7 mps 739 mmHg 63%
    05:00 -10°C° 0 mm 8 mps 740 mmHg 61%
    06:00 -10°C° 0 mm 8 mps 741 mmHg 60%
    07:00 -11°C° 0 mm 8 mps 742 mmHg 58%
    08:00 -12°C° 0 mm 8 mps 743 mmHg 57%
    09:00 -12°C° 0 mm 8 mps 744 mmHg 55%
    10:00 -11°C° 0 mm 8 mps 745 mmHg 53%
    11:00 -11°C° 0 mm 8 mps 746 mmHg 50%
    12:00 -11°C° 0 mm 8 mps 746 mmHg 50%
    13:00 -11°C° 0 mm 8 mps 747 mmHg 49%
    14:00 -11°C° 0 mm 9 mps 748 mmHg 48%
    15:00 -11°C° 0 mm 8 mps 749 mmHg 48%
    16:00 -12°C° 0 mm 8 mps 750 mmHg 49%
    17:00 -12°C° 0 mm 8 mps 751 mmHg 49%
    18:00 -12°C° 0 mm 7 mps 752 mmHg 49%
    19:00 -13°C° 0 mm 7 mps 753 mmHg 48%
    20:00 -12°C° 0 mm 6 mps 754 mmHg 47%
    21:00 -12°C° 0 mm 6 mps 754 mmHg 48%
    22:00 -12°C° 0 mm 5 mps 755 mmHg 48%
    23:00 -12°C° 0 mm 5 mps 756 mmHg 49%

    17 December, Tuesday

    Time Temperature Precipitation Wind Pressure Humidity
    00:00 -13°C° 0 mm 5 mps 756 mmHg 50%
    01:00 -13°C° 0 mm 5 mps 756 mmHg 51%
    02:00 -12°C° 0 mm 4 mps 756 mmHg 52%
    03:00 -12°C° 0 mm 4 mps 756 mmHg 53%
    04:00 -12°C° 0 mm 4 mps 756 mmHg 54%
    05:00 -12°C° 0 mm 3 mps 757 mmHg 55%
    06:00 -12°C° 0 mm 3 mps 756 mmHg 55%
    07:00 -10°C° 0 mm 2 mps 756 mmHg 56%
    08:00 -10°C° 0 mm 2 mps 756 mmHg 56%
    09:00 -9°C° 0.1 mm 2 mps 755 mmHg 56%
    10:00 -7°C° 0.1 mm 1 mps 755 mmHg 56%
    11:00 -7°C° 0.1 mm 1 mps 754 mmHg 56%
    12:00 -6°C° 0.2 mm 1 mps 753 mmHg 56%
    13:00 -6°C° 0.2 mm 1 mps 752 mmHg 56%
    14:00 -4°C° 0.2 mm 1 mps 750 mmHg 56%
    15:00 -7°C° 0.5 mm 2 mps 749 mmHg 68%
    16:00 -7°C° 0.5 mm 2 mps 748 mmHg 80%
    17:00 -7°C° 0.5 mm 2 mps 747 mmHg 91%
    18:00 -7°C° 0.3 mm 2 mps 746 mmHg 92%
    19:00 -6°C° 0.3 mm 2 mps 745 mmHg 92%
    20:00 -4°C° 0.3 mm 1 mps 744 mmHg 93%
    21:00 -4°C° 0.2 mm 1 mps 744 mmHg 93%
    22:00 -4°C° 0.2 mm 1 mps 743 mmHg 93%
    23:00 -4°C° 0.2 mm 1 mps 743 mmHg 93%
    Show more